Location: Bougoura
(13.1861°N, 5.0773°W)
Time: 03:51:19
(UTC+00:00)

Iridium 4 Rocket - Pass Details

Date: 18 September 2020
Orbit: 585 x 904 km, 86.9° (Epoch: 23 October)

Event Time Altitude Azimuth Distance (km) Brightness Sun altitude
Rises 19:11:42 0° 190° (S) 2,883 6.6 -13.6°
Reaches altitude 10° 19:13:52 10° 195° (SSW) 2,012 5.8 -14.2°
Maximum altitude 19:18:11 52° 271° (W) 832 4.1 -15.2°
Drops below altitude 10° 19:22:52 10° 347° (NNW) 2,190 6.1 -16.4°
Sets 19:25:20 0° 353° (N) 3,165 6.9 -17.0°
